Theta_e
289 283 279 281 284 284 282 281 281 286 291 293 294 296 299 303 303 304 306 311 312 314 317 319 322 321 319 321 321 322 322 322 324 321 318 315 313 310 308 309 309 308 306 304
283 280 284 286 285 284 283 281 280 285 290 290 292 294 299 302 303 305 305 309 311 311 315 318 320 321 320 320 321 322 322 321 323 322 320 314 310 306 305 305 304 304 303 302
280 282 286 285 283 281 281 280 280 281 286 290 290 290 293 298 301 304 308 310 313 311 313 316 318 320 321 320 321 322 322 321 322 320 309 306 304 303 302 301 300 300 301 300
282 287 284 283 281 283 278 284 284 284 283 280 291 281 290 294 296 300 303 310 312 312 313 316 317 319 320 321 323 323 322 322 322 314 311 309 309 305 304 301 299 298 299 298
282 283 284 282 282 285 281 286 284 285 283 282 283 284 288 294 292 296 301 307 313 315 313 315 317 318 320 321 322 323 321 322 316 315 313 313 310 303 301 298 296 296 296 296
285 290 287 285 287 286 288 285 286 285 283 276 282 285 284 291 294 297 300 304 312 315 314 315 318 319 319 321 321 321 320 321 316 314 314 313 303 298 297 296 294 294 294 293
281 285 287 288 285 287 286 282 275 273 273 275 285 284 287 292 298 300 301 304 311 315 314 313 314 316 317 317 319 319 319 318 316 313 313 310 305 301 299 296 294 292 292 292
275 273 285 287 286 283 282 281 277 272 275 278 287 282 287 295 299 301 303 307 313 314 315 313 314 315 315 316 317 318 318 315 315 314 311 306 302 300 297 295 293 292 292 292
274 276 287 286 288 287 283 279 285 281 282 277 282 289 293 295 296 299 301 306 312 314 315 313 313 313 313 314 315 317 318 315 312 308 303 300 298 297 295 294 293 292 292 291
280 275 285 288 285 287 288 290 279 282 275 271 280 284 284 291 291 296 301 307 312 314 313 312 311 308 307 308 308 312 312 309 306 302 301 299 297 296 294 294 292 291 291 291
282 280 280 286 284 285 289 286 287 287 284 276 275 282 291 291 293 294 303 308 311 311 308 307 305 303 301 301 301 300 300 301 300 299 297 296 295 294 294 294 292 291 291 290
282 280 277 279 286 286 287 290 289 281 280 284 283 281 294 296 297 297 306 306 303 300 298 297 297 297 296 296 296 298 296 295 295 294 294 293 293 293 292 292 292 291 290 290
282 279 274 277 284 288 286 288 291 290 287 282 280 283 293 295 296 299 296 296 295 294 294 294 294 293 293 293 293 293 294 294 294 294 293 293 293 293 293 292 291 291 289 288
284 281 277 273 277 283 282 285 291 288 284 283 282 285 287 291 291 293 293 294 293 293 292 292 292 292 293 293 293 293 293 294 294 295 294 294 293 293 292 291 289 288 287 286
280 275 278 279 282 283 284 284 288 285 285 282 283 284 286 290 290 291 292 292 292 291 292 292 292 292 293 293 293 293 294 294 295 294 293 291 291 291 289 288 286 285 284 285
281 275 277 278 283 282 282 282 285 286 286 285 285 284 292 292 293 292 292 292 291 291 292 292 292 292 292 292 292 293 292 293 294 293 291 291 289 287 285 284 284 283 283 282
277 276 275 274 280 281 278 279 283 284 283 285 281 284 289 287 289 290 292 292 291 291 292 292 292 292 293 293 293 292 292 293 293 291 289 287 286 284 283 283 282 281 281 281
277 276 277 273 278 273 281 284 284 283 283 283 286 286 288 288 288 287 291 293 292 291 291 292 292 292 293 293 292 292 292 291 290 289 288 286 285 284 282 281 281 281 280 280
281 277 273 271 273 280 282 282 281 279 283 283 284 286 287 291 292 286 287 292 293 293 293 293 293 293 293 292 291 290 290 289 289 288 287 286 284 283 281 280 280 281 280 279
281 280 275 273 273 272 279 281 285 286 281 283 284 285 286 291 283 282 285 287 290 292 293 293 293 293 292 291 290 289 288 288 288 288 287 286 284 283 282 282 282 281 280 280
267 272 271 272 274 278 279 281 285 278 278 282 285 285 284 281 282 284 285 284 286 287 287 287 286 284 285 288 290 288 287 284 284 286 285 284 283 283 283 282 281 279 279 277
272 272 272 274 273 272 282 282 277 280 282 284 285 285 283 283 283 282 282 282 283 283 283 283 281 279 280 282 285 281 278 278 278 278 278 277 276 277 277 275 275 274 274 274
275 277 275 277 276 281 282 280 282 283 283 283 284 285 284 282 280 280 280 279 279 279 280 280 279 276 275 275 277 275 273 274 274 274 273 272 272 274 274 274 274 274 272 272
279 278 277 278 280 280 281 281 281 283 282 281 282 282 282 280 279 278 278 277 276 276 275 275 274 272 271 271 271 271 271 271 271 272 272 272 271 272 271 273 273 272 272 272
276 277 276 278 281 282 283 280 280 281 281 281 280 279 280 279 277 276 275 275 274 273 272 271 271 270 269 269 268 267 267 267 270 269 270 270 271 270 271 272 272 273 274 274
276 275 276 276 279 279 280 279 280 278 277 278 279 277 275 277 276 274 272 272 271 270 269 269 268 267 267 266 265 265 264 265 266 269 269 268 269 269 269 269 270 275 278 279
Wind_Speed
5 4 10 20 16 18 10 14 14 14 12 14 17 19 18 16 8 13 12 13 15 16 13 14 16 16 16 15 16 17 16 13 10 8 7 5 6 4 4 5 6 7 6 6
2 14 24 12 9 14 16 16 19 18 17 14 18 14 18 13 20 15 14 16 16 14 15 14 15 17 18 17 16 17 16 14 12 8 7 4 5 3 4 4 5 6 6 6
16 19 10 16 14 15 19 19 19 16 15 18 17 14 13 10 12 11 12 14 16 18 19 18 18 20 18 18 19 17 16 15 13 11 9 7 7 5 4 4 4 4 6 6
13 19 20 19 19 18 20 19 19 16 6 9 12 10 14 20 16 14 17 14 17 18 18 19 20 18 19 17 16 17 15 16 13 15 11 16 8 7 4 4 5 5 6 7
16 12 11 18 26 17 18 12 16 14 15 12 20 9 14 13 16 20 18 18 17 18 19 19 21 21 18 17 17 16 16 16 15 15 14 12 10 4 7 7 9 7 6 6
22 23 20 24 12 21 6 14 7 12 7 13 23 14 5 12 18 13 16 21 21 19 19 19 19 17 17 15 16 15 17 16 16 14 14 14 14 12 9 9 7 6 5 4
23 7 4 14 12 16 17 5 4 3 4 15 14 15 15 6 10 18 20 23 22 21 20 19 19 19 17 17 18 16 18 15 15 15 14 13 13 14 15 13 9 10 6 4
8 10 2 2 6 8 21 19 4 7 10 4 7 10 7 8 6 5 6 17 18 21 20 21 21 19 19 20 19 18 18 15 14 14 12 10 12 8 8 9 9 7 7 7
8 8 7 10 9 8 14 17 19 6 4 4 4 3 10 6 5 7 10 19 22 22 21 21 20 18 17 17 17 17 17 14 14 13 11 11 11 12 11 11 9 7 6 6
5 13 5 6 2 8 6 8 4 7 3 3 6 3 7 2 5 8 14 20 20 19 20 16 16 14 10 9 7 10 12 14 12 12 11 11 12 12 12 11 9 9 6 7
17 6 11 11 3 3 6 8 9 4 2 3 3 3 1 5 9 11 14 17 17 15 12 13 11 11 13 11 9 10 10 13 12 11 10 11 10 10 11 10 10 8 8 8
7 8 9 20 12 5 5 2 2 3 3 1 0 4 6 8 10 7 9 11 11 13 12 12 11 11 12 11 11 9 9 9 10 11 13 12 13 12 9 8 8 6 7 6
12 6 10 14 3 4 7 5 4 2 1 3 3 1 10 6 4 11 14 12 11 14 14 12 10 13 10 11 12 11 11 10 11 10 14 13 14 14 14 10 8 5 4 5
13 4 4 6 8 8 9 10 5 1 1 2 3 4 9 8 8 7 12 13 12 12 13 13 11 12 11 9 12 11 12 12 11 12 12 13 7 9 6 5 7 5 5 5
6 6 9 15 12 7 6 12 7 10 5 4 4 3 7 8 9 11 11 13 14 13 13 13 12 11 10 10 12 8 11 12 9 11 9 9 8 7 5 5 4 5 5 4
9 6 11 5 3 13 4 23 15 11 9 4 5 4 11 9 10 13 13 13 12 13 13 12 15 8 12 11 11 11 12 11 10 10 10 8 6 4 5 6 5 4 4 4
7 9 6 8 15 13 9 19 14 7 13 7 9 7 10 16 18 15 12 12 13 14 12 12 11 10 10 11 9 11 10 10 9 9 7 6 5 4 4 5 5 5 5 4
9 10 3 6 11 8 2 9 6 6 16 20 11 13 9 11 14 18 16 12 13 13 12 11 11 11 9 9 11 10 9 8 7 6 5 5 5 4 4 4 4 4 3 5
3 5 5 4 4 3 1 11 10 7 8 19 15 14 8 3 10 17 17 14 13 12 11 9 11 9 10 8 8 9 8 6 5 3 0 0 1 1 2 4 5 4 3 3
4 3 3 4 4 5 4 20 15 3 10 21 20 17 11 5 15 6 13 13 15 14 11 11 11 9 9 6 7 8 6 5 3 2 3 2 3 3 4 4 4 3 4 4
7 5 2 4 3 3 10 26 12 6 6 19 15 14 16 13 8 5 11 16 15 14 15 14 14 12 9 6 6 8 8 9 7 5 3 3 1 1 2 2 1 1 3 4
3 5 4 5 5 7 24 12 10 6 7 7 10 11 14 12 13 14 15 16 15 15 14 13 14 13 13 13 10 11 11 8 6 5 6 6 6 4 4 3 2 2 2 3
3 4 4 5 2 4 9 6 8 5 3 7 8 10 10 13 13 13 13 14 14 14 12 11 12 13 13 13 12 12 9 8 6 6 6 4 2 3 2 3 4 4 3 3
2 3 1 2 3 7 11 11 13 10 12 12 12 11 11 13 11 13 13 12 12 12 13 11 14 15 14 12 13 11 11 10 7 8 8 6 6 6 4 3 2 3 3 3
2 6 4 1 3 6 10 13 11 11 12 12 12 12 12 10 12 10 12 12 11 11 10 12 12 12 12 10 12 10 10 8 6 3 4 5 4 6 6 4 3 4 3 3
1 2 3 2 4 2 4 8 9 10 11 11 10 13 13 11 11 10 11 9 9 9 8 11 11 10 9 9 10 11 10 10 10 11 10 9 8 8 7 8 9 9 10 15
Wind_Direction
208 165 218 225 213 238 259 266 275 267 287 279 247 248 237 223 218 219 217 208 201 194 198 175 177 176 169 173 171 179 181 178 167 156 148 150 141 130 108 96 93 102 106 113
304 229 233 235 221 230 240 248 255 271 271 274 266 257 248 221 226 220 214 210 201 186 169 170 173 172 179 174 177 176 182 174 172 166 154 137 137 110 112 101 92 97 112 117
235 245 224 230 224 222 230 232 246 244 273 281 274 263 244 251 235 228 214 212 199 187 179 176 180 180 177 177 177 176 178 173 173 155 117 104 96 98 110 115 109 101 110 108
240 259 238 238 236 205 240 220 229 243 241 259 206 246 218 231 227 220 222 205 197 191 188 182 178 184 181 181 174 175 171 174 167 157 152 160 160 156 164 142 129 119 116 117
253 242 229 230 231 200 236 195 215 213 227 271 269 228 242 205 226 223 211 206 199 192 183 185 187 186 183 175 175 176 171 172 165 170 168 169 154 118 130 127 133 128 116 110
259 255 225 227 219 208 210 262 236 214 218 247 247 239 225 205 208 214 208 206 198 185 183 184 186 179 181 179 168 171 171 173 174 172 167 165 155 142 145 145 142 138 126 116
313 292 166 197 220 203 202 216 212 148 175 245 224 212 240 230 203 202 202 199 192 180 175 175 176 180 174 177 175 173 176 173 176 170 168 166 161 160 164 159 153 147 146 142
331 320 207 111 213 172 194 193 191 190 186 192 175 199 228 238 195 217 228 195 182 178 175 174 174 174 177 180 178 176 178 171 175 170 166 154 148 149 148 150 149 149 154 137
298 260 210 229 196 189 163 204 228 317 183 112 183 280 302 220 247 227 218 186 186 178 176 170 166 171 173 171 173 174 172 169 168 159 147 144 140 144 144 137 137 130 129 131
277 291 274 318 221 236 251 138 124 223 169 227 193 215 236 137 298 270 202 186 184 174 169 160 152 146 132 125 133 145 155 155 150 141 143 143 140 137 137 133 126 115 116 110
306 258 292 322 29 17 165 170 225 175 263 216 167 207 62 289 282 300 183 177 173 159 143 136 129 118 103 101 98 104 114 127 126 124 121 121 120 122 123 117 117 140 141 132
300 305 323 317 324 256 241 88 211 112 242 308 82 271 351 298 261 236 169 124 109 112 111 108 112 110 107 113 105 113 104 106 112 116 112 111 108 106 100 107 110 163 147 142
335 306 328 337 320 6 14 342 287 188 166 193 182 312 333 10 23 117 113 109 109 109 104 101 100 100 95 104 103 97 94 102 101 110 114 114 124 135 137 158 136 141 138 148
332 281 33 286 283 290 297 309 300 214 48 9 29 324 336 33 47 71 92 96 101 101 102 99 95 92 103 103 100 106 110 107 114 120 118 128 142 103 119 125 122 148 163 165
3 290 338 290 273 311 330 325 32 56 358 36 322 358 337 24 55 64 81 89 93 94 95 95 93 92 108 114 90 124 108 105 115 108 109 95 95 103 129 130 135 153 164 170
349 291 315 278 308 340 341 17 13 51 18 356 330 47 5 60 72 69 74 83 91 99 97 113 100 118 107 103 105 104 100 97 103 104 105 106 108 153 148 141 144 160 169 194
323 323 328 302 331 316 28 355 15 50 27 337 18 355 34 44 43 40 60 72 84 78 83 87 94 87 92 99 108 101 103 99 101 105 97 113 154 160 146 140 152 189 198 195
306 321 293 298 323 43 129 3 1 358 39 16 21 22 48 63 56 36 23 61 71 79 86 88 93 87 83 90 90 99 92 94 108 113 131 151 173 158 153 162 195 214 207 218
273 298 321 357 303 284 69 8 344 354 6 14 0 2 349 337 76 39 15 42 73 83 83 83 82 87 86 86 101 99 98 99 86 88 148 53 112 197 187 214 223 232 239 238
281 249 327 340 351 8 322 329 328 235 36 358 349 6 23 24 64 20 2 32 55 65 73 81 83 84 81 73 89 93 95 95 67 342 296 233 205 211 222 241 256 217 221 251
344 342 8 329 343 330 351 328 316 51 332 331 341 14 46 64 51 41 44 45 50 54 60 63 62 61 39 41 75 70 59 36 355 355 17 38 37 237 272 284 223 282 287 295
313 333 355 330 6 354 1 352 44 323 312 327 5 19 55 62 60 57 56 54 53 54 53 58 69 54 36 30 62 62 48 358 358 14 37 28 21 11 1 7 324 282 244 259
357 22 324 8 11 297 345 331 323 315 331 7 20 33 60 66 54 53 58 54 51 55 57 53 65 64 44 38 37 52 9 360 1 36 37 27 12 26 14 357 347 339 343 305
343 1 320 291 350 338 13 356 7 11 39 24 30 42 48 64 52 54 51 45 49 43 43 41 53 50 45 34 38 36 9 359 16 31 23 13 18 0 357 346 288 263 248 256
274 338 351 328 348 318 25 13 359 15 24 28 37 38 37 62 52 56 54 47 45 49 45 47 53 53 42 34 36 21 8 352 10 30 17 16 13 13 360 356 321 313 285 276
354 352 22 355 318 326 24 352 7 40 26 17 40 44 32 37 59 60 57 47 48 52 45 55 56 61 44 44 38 23 14 17 21 26 17 11 8 2 1 354 342 346 322 325